This is the latest recevied weather packets stored in our database for station/object IZ1UQG-N2. If no packets are shown the sender has not sent any weather packets the latest 10 day(s).
| Time | Temp. | Humidity | Pressure | Rain* | Wind** | Luminosity | Snow |
|---|---|---|---|---|---|---|---|
| 1787647902 | 21.11° C | 81% | 1009.7 hPa | 0 mm | - | 589 W/m² | - |
| 1787647842 | 21.11° C | 82% | 1009.6 hPa | 0 mm | - | 585 W/m² | - |
| 1787647781 | 21.11° C | 82% | 1009.6 hPa | 0 mm | - | 585 W/m² | - |
| 1787647721 | 21.67° C | 83% | 1009.6 hPa | 0 mm | - | 582 W/m² | - |
| 1787647661 | 21.11° C | 83% | 1009.6 hPa | 0 mm | - | 582 W/m² | - |
| 1787647600 | 21.11° C | 83% | 1009.6 hPa | 0 mm | - | 582 W/m² | - |
| 1787647540 | 21.11° C | 83% | 1009.7 hPa | 0 mm | - | 587 W/m² | - |
| 1787647480 | 21.11° C | 84% | 1009.6 hPa | 0 mm | - | 573 W/m² | - |
| 1787647422 | 20.56° C | 84% | 1009.5 hPa | 0 mm | - | 573 W/m² | - |
| 1787647362 | 20.56° C | 84% | 1009.5 hPa | 0 mm | - | 573 W/m² | - |
| 1787647302 | 20.56° C | 84% | 1009.5 hPa | 0 mm | - | 573 W/m² | - |
| 1787647241 | 20.56° C | 85% | 1009.5 hPa | 0 mm | - | 570 W/m² | - |
| 1787647181 | 20.56° C | 84% | 1009.5 hPa | 0 mm | - | 566 W/m² | - |
| 1787647121 | 20.56° C | 86% | 1009.6 hPa | 0 mm | - | 563 W/m² | - |
| 1787647060 | 20.56° C | 86% | 1009.5 hPa | 0 mm | - | 561 W/m² | - |
| 1787647000 | 20.56° C | 86% | 1009.5 hPa | 0 mm | - | 559 W/m² | - |
| 1787646940 | 20.56° C | 87% | 1009.6 hPa | 0 mm | - | 556 W/m² | - |
| 1787646882 | 20.56° C | 86% | 1009.5 hPa | 0 mm | - | 554 W/m² | - |
| 1787646821 | 20.56° C | 87% | 1009.6 hPa | 0 mm | - | 559 W/m² | - |
| 1787646761 | 20.56° C | 87% | 1009.7 hPa | 0 mm | - | 554 W/m² | - |
| 1787646701 | 20° C | 87% | 1009.5 hPa | 0 mm | - | 550 W/m² | - |
| 1787646641 | 20° C | 87% | 1009.5 hPa | 0 mm | - | 547 W/m² | - |
| 1787646581 | 20.56° C | 87% | 1009.5 hPa | 0 mm | - | 540 W/m² | - |
| 1787646520 | 20.56° C | 87% | 1009.5 hPa | 0 mm | - | 534 W/m² | - |
| 1787646460 | 20.56° C | 87% | 1009.5 hPa | 0 mm | - | 531 W/m² | - |
* Rain latest hour (hover to see other rain measurements)
** Current wind speed in m/s (hover to see current wind gust speed)